Regional Weather Roundup
Issued by NWS

Home | Current Version | Previous Version | Text Only | Print | Product List | Glossary Off
Versions: 1 2 3 4 5 6 7 8 9 10 11 12 13 14 15 16 17 18 19 20 21 22 23 24 25 26 27 28 29 30 31 32 33 34 35 36 37 38 39 40 41 42 43 44 45 46 47 48 49 50

000
ASUS43 KMKX 290600
RWRWI

WISCONSIN REGIONAL WEATHER ROUNDUP
NATIONAL WEATHER SERVICE MILWAUKEE/SULLIVAN WI
100 AM CDT FRI AUG 29 2014

NOTE: "FAIR" INDICATES FEW OR NO CLOUDS BELOW 12,000 FEET WITH NO
SIGNIFICANT WEATHER AND/OR OBSTRUCTIONS TO VISIBILITY.

WIZ001-002-006>008-014>016-023>028-290700-
NORTHWEST WISCONSIN

CITY           SKY/WX    TMP DP  RH WIND       PRES   REMARKS
SUPERIOR ARPT  CLOUDY    62  59  91 NE6       29.94F
ASHLAND        FAIR      58  57  97 CALM      29.97F
6HR MIN TEMP:  57; 6HR MAX TEMP:  65;

HAYWARD        CLOUDY    65  61  87 SE12      29.96F
6HR MIN TEMP:  65; 6HR MAX TEMP:  68;

SIREN          CLOUDY    65  62  89 SE9       29.93F
RICE LAKE      CLOUDY    64  61  91 SE13G18   29.96F
6HR MIN TEMP:  63; 6HR MAX TEMP:  66;

LADYSMITH      CLOUDY    64  60  88 SE9       30.00F
EAU CLAIRE     NOT AVBL
MENOMONIE      CLOUDY    64  63  95 E13       29.94F FOG
NEW RICHMOND   CLOUDY    65  64  96 SE9       29.92F
OSCEOLA        CLOUDY    66  66  98 SE6       29.94S
$$

WIZ003>005-009-010-017-018-290700-
NORTH CENTRAL WISCONSIN

CITY           SKY/WX    TMP DP  RH WIND       PRES   REMARKS
WOODRUFF       CLOUDY    63  58  84 SE10      30.03S
RHINELANDER    CLOUDY    59  56  89 SE6       30.04F
6HR MIN TEMP:  59; 6HR MAX TEMP:  65; 6HR PCP:  0.01;

EAGLE RIVER    CLOUDY    61  55  79 S6        30.04S
LAND O LAKES   CLOUDY    63  58  85 S6        30.04F
PHILLIPS       CLOUDY    62  59  90 S8        30.01S
TOMAHAWK       CLOUDY    59  57  92 CALM      30.03F
MEDFORD        RAIN      58  56  96 SE8       30.02F
MERRILL        RAIN      60  59  96 CALM      30.03F
$$

WIZ029-030-035-036-043>047-290700-
CENTRAL WISCONSIN

CITY           SKY/WX    TMP DP  RH WIND       PRES   REMARKS
WAUSAU         RAIN      58  57  97 S9        30.03S FOG
6HR MIN TEMP:  58; 6HR MAX TEMP:  65; 6HR PCP:  0.17;

MOSINEE        RAIN      55  55 100 SE8       30.05S
MARSHFIELD     LGT RAIN  58  56  93 SE9       30.02S FOG
6HR MIN TEMP:  58; 6HR MAX TEMP:  67;

STEVENS POINT  RAIN      56  54  93 CALM      30.05R
WAUPACA        CLOUDY    63  60  90 CALM      30.03S
WAUTOMA        NOT AVBL
WISC RAPIDS    LGT RAIN  57  56  96 E7        30.02F
6HR MIN TEMP:  56; 6HR MAX TEMP:  66; 6HR PCP:  0.39;

CAMP DOUGLAS   NOT AVBL
$$

WIZ011>013-019>022-031-037>040-048>050-290700-
NORTHEAST WISCONSIN

CITY           SKY/WX    TMP DP  RH WIND       PRES   REMARKS
ANTIGO         DRIZZLE   58  56  92 SE6       30.05S
STURGEON BAY   MOCLDY    63  55  77 SE6       30.06F
6HR MIN TEMP:  61; 6HR MAX TEMP:  63;

GREEN BAY      LGT RAIN  63  58  83 S6        30.04F
6HR MIN TEMP:  62; 6HR MAX TEMP:  65; 6HR PCP: TRACE;

MANITOWOC      NOT AVBL
APPLETON       CLOUDY    63  55  77 SE7       30.03F
CLINTONVILLE   LGT RAIN  61  57  88 SE3       30.03F
OSHKOSH        LGT RAIN  64  58  80 SE8       30.02F
6HR MIN TEMP:  63; 6HR MAX TEMP:  65; 6HR PCP:  0.01;

$$

WIZ032>034-041-042-053>061-290700-
SOUTHWEST WISCONSIN

CITY           SKY/WX    TMP DP  RH WIND       PRES   REMARKS
LA CROSSE      CLOUDY    66  62  87 E7        29.94F
6HR MIN TEMP:  66; 6HR MAX TEMP:  68; 6HR PCP:  0.23;

SPARTA         CLOUDY    62  59  92 NE5       29.98S
VIROQUA        CLOUDY    63  62  98 SE9       29.97F
BOSCOBEL       MOCLDY    68  60  75 CALM      29.97F
6HR MIN TEMP:  68; 6HR MAX TEMP:  72; 6HR PCP: TRACE;

PRAIRIE DU CHI CLOUDY    68  63  83 E5        29.96S
PLATTEVILLE    FAIR      64  62  94 SE5       29.99F
$$

WIZ056-057-062-063-064-067-068-290700-
SOUTH CENTRAL WISCONSIN

CITY           SKY/WX    TMP DP  RH WIND       PRES   REMARKS
BARABOO/DELLS  LGT RAIN  62  56  82 SE7       29.99F
LONE ROCK      NOT AVBL
WATERTOWN      CLOUDY    64  60  85 E7        30.01F
MADISON        MOCLDY    65  60  84 SE7       29.99F
6HR MIN TEMP:  65; 6HR MAX TEMP:  69; 6HR PCP: TRACE;

MIDDLETON      MOCLDY    66  59  80 SE7       30.01S
MONROE         FAIR      63  61  94 SE5       30.00S
JANESVILLE     MOCLDY    66  63  88 CALM      30.00F
$$

WIZ051-052-058>065-066-070>072-290700-
SOUTHEAST WISCONSIN

CITY           SKY/WX    TMP DP  RH WIND       PRES   REMARKS
MILWAUKEE      MOCLDY    68  61  78 SE10      30.02F
6HR MIN TEMP:  66; 6HR MAX TEMP:  68;

WAUKESHA       MOCLDY    63  59  88 E6        30.04F
MILWAUKEE/TIMM CLOUDY    68  57  68 E6        30.04F
RACINE         FAIR      70  63  78 SE6       30.04F
6HR MIN TEMP:  68; 6HR MAX TEMP:  71;

BURLINGTON     FAIR      61  60  96 E3        30.02F
KENOSHA        FAIR      69  65  86 E8        30.02F
6HR MIN TEMP:  64; 6HR MAX TEMP:  69;

FOND DU LAC    LGT RAIN  64  58  80 SE10      30.02F
6HR MIN TEMP:  63; 6HR MAX TEMP:  66; 6HR PCP: TRACE;

SHEBOYGAN      CLOUDY    64  59  83 SE5       30.04F
6HR MIN TEMP:  62; 6HR MAX TEMP:  65; 6HR PCP: TRACE;

WEST BEND      CLOUDY    63  55  77 E3        30.04S
JUNEAU         CLOUDY    64  58  82 SE9       30.03F
$$

LSZ147-162-290700-
LAKE SUPERIOR

STATION/POSITION TIME  TEMP    WIND        PRES    WAVE
                       AIR SEA DIR/SP/G            HT/PER
                 (UTC) (F)     (DEG/KT/KT) (MB)    (FT/S)
W MID LAKE BUOY  0450   60 57  160/ 12/ 12 1014.6F   1
DEVILS ISLAND    0500   62        CALM     1014.8F
PORT WING        0500   63      CALM  /  1 1014.6
SAXON HARBOR     0500   66      CALM  /  7 1014.9F
$$

LMZ867-665-643>646-290700-
LAKE MICHIGAN

STATION/POSITION TIME  TEMP    WIND        PRES    WAVE
                       AIR SEA DIR/SP/G            HT/PER
                 (UTC) (F)     (DEG/KT/KT) (MB)    (FT/S)
N MID LAKE BUOY  0450   65 65  130/ 12/ 14 1018.5F   1
NORTHPORT PIER   0500   65     130/ 12/ 14 1017.9F
SISTER BAY       0441   64     150/  7/  9   N/A
ALGOMA LAKESHORE 0538          160/ 11/ 12   N/A
KEWAUNEE LAKESHO 0500   65     120/  7/  9 1016.9F
SHEBOYGAN LAKESH 0500   66 70  110/ 10/ 11 1017.8F
ATWATER BUOY     0500   69     140/ 14/ 17 1018.2F
MILWAUKEE LAKESH 0500   69     130/ 12/ 14   N/A
S MID LAKE BUOY  0450   69 69  120/ 16/ 17 1017.5F   2/ 4
KENOSHA   LAKESH 0500   70     120/ 16/ 19 1016.6F
$$

TC  - TEMPERATURE IN CELSIUS
VSB - VISIBILITY IN STATUTE MILES
WCI - WIND CHILL INDEX
HX  - HEAT INDEX




USA.gov is the U.S. government's official web portal to all federal, state and local government web resources and services.